Weather Roundup
Issued by NWS Chicago, IL

Home | Current Version | Previous Version | Text Only | Print | Product List | Glossary On
Versions: 1 2 3 4 5 6 7 8 9 10 11 12 13 14 15 16 17 18 19 20 21 22 23 24 25 26 27 28 29 30 31 32 33 34 35 36 37 38 39 40 41 42 43 44 45 46 47 48 49 50
000
NZUS59 KLOT 201910
HRRLOT

CHICAGO AREA WEATHER ROUNDUP
NATIONAL WEATHER SERVICE CHICAGO/ROMEOVILLE IL
200 PM CDT SUN APR 20 2014

NOTE: "FAIR" INDICATES FEW OR NO CLOUDS BELOW 12,000 FEET WITH NO
SIGNIFICANT WEATHER AND/OR OBSTRUCTIONS TO VISIBILITY.

* THESE STATIONS ARE NOT UNDER NWS QUALITY CONTROL. THEY ALSO MAY NOT
  REPORT WEATHER SUCH AS PRECIPITATION OR FOG.

ILZ005-006-012>014-019>023-202000-
NORTHEAST ILLINOIS

CITY           SKY/WX    TMP DP  RH WIND       PRES   REMARKS
OHARE          PTSUNNY   75  39  27 SW13      30.13F
MIDWAY         PTSUNNY   75  40  28 SW12G18   30.14F
AURORA         SUNNY     77  41  27 S9        30.12F
LANSING*       SUNNY     75  37  25 S10G17    30.15F
JOLIET*        MOSUNNY   76  37  24 SW10G18   30.14F
WAUKEGAN       MOSUNNY   67  39  35 SE12      30.12F
DUPAGE AIRPORT SUNNY     77  41  27 SW13      30.12F
WHEELING       MOSUNNY   75  41  29 S13       30.14F
KANKAKEE*      PTSUNNY   74  42  31 S8        30.15F
MORRIS*        MOSUNNY   78  28  16 SW12G17   30.12F
LEWIS AIRPORT* SUNNY     75  37  25 S10G16    30.13F
NORTHERLY IS     N/A     59  43  55 E6          N/A
$$

WIZ051-052-058>065-066-070>072-202000-
SOUTHEAST WISCONSIN

CITY           SKY/WX    TMP DP  RH WIND       PRES   REMARKS
MILWAUKEE      MOSUNNY   68  41  37 SE10      30.11F
KENOSHA*       MOSUNNY   74  40  29 S12       30.12F
RACINE*        SUNNY     63  37  38 S15       30.14F
BURLINGTON     MOSUNNY   76  41  28 SW14G20   30.10F
WAUKESHA       MOSUNNY   72  41  33 SW12      30.12F
WEST BEND      PTSUNNY   72  36  26 SW9       30.09F
$$

INZ001>003-010>013-019-020-202000-
NORTHWEST INDIANA

CITY           SKY/WX    TMP DP  RH WIND       PRES   REMARKS
GARY*          PTSUNNY   75  36  23 SE12      30.15F
MICHIGAN CITY* NOT AVBL
RENSSELAER*    NOT AVBL
VALPARAISO     SUNNY     72  35  25 S8        30.17F
$$

LMZ740>746-202000-
SOUTHERN LAKE MICHIGAN

STATION/POSITION TIME  SKY/WX   TEMP WIND        PRES    VSBY
                                AIR  DIR/SP/G
                 (UTC)          (F)  (DEG/KT/KT) (MB)    (MI)
HARRISON CRIB    1900            61  130/ 14/ 16   N/A
BURNHAM HARBOR   1900            59  100/  7/ 12   N/A
CALUMET HARBOR   1900            72  190/  9/ 14 1021.6S
BURNS HARBOR     NOT AVBL
MICHIGAN CITY    1900            64  290/  2/  3   N/A
$$

ABBREVIATIONS USED IN REMARKS
   TC - TEMPERATURE IN CELSIUS
  WCI - WIND CHILL INDEX
   HX - HEAT INDEX
  VSB - VISIBILITY
$$


USA.gov is the U.S. government's official web portal to all federal, state and local government web resources and services.